N1JOT Weather Reports


Display with metric or nautical units.
time (UTC)temp
F
wind
direction
speed
MPH
gust
MPH
rain 1hr
in
rain 24hr
in
rain mn
in
humidity
%
barometer
mb
20260510120100 54 192 0.0 2.0 0.00 0.41 0.00 95 1013.4
20260510115600 54 190 0.0 2.0 0.00 0.44 0.00 95 1013.3
20260510115100 54 0 0.0 2.0 0.00 0.44 0.00 95 1013.4
20260510114558 54 0 0.0 2.0 0.00 0.44 0.00 95 1013.4
20260510114059 54 0 0.0 0.0 0.00 0.44 0.00 95 1013.4
20260510113559 53 0 0.0 0.0 0.00 0.44 0.00 95 1013.4
20260510113125 53 0 0.0 0.0 0.00 0.44 0.00 95 1013.5
20260510112559 53 0 0.0 0.0 0.00 0.44 0.00 95 1013.4
20260510112059 53 0 0.0 0.0 0.00 0.44 0.00 95 1013.4
20260510111607 53 0 0.0 0.0 0.00 0.44 0.00 95 1013.4
20260510111058 53 0 0.0 0.0 0.00 0.44 0.00 95 1013.5
20260510110600 53 0 0.0 0.0 0.00 0.44 0.00 95 1013.5
20260510110059 53 0 0.0 0.0 0.00 0.44 0.00 95 1013.5
20260510105558 53 0 0.0 0.0 0.00 0.44 0.00 95 1013.5
20260510105058 53 0 0.0 0.0 0.00 0.44 0.00 95 1013.5
20260510104602 53 0 0.0 0.0 0.00 0.44 0.00 95 1013.5
20260510104058 52 0 0.0 0.0 0.00 0.44 0.00 95 1013.5
20260510103558 52 0 0.0 0.0 0.00 0.44 0.00 95 1013.4
20260510103102 52 0 0.0 0.0 0.00 0.44 0.00 95 1013.4
20260510102558 52 0 0.0 0.0 0.00 0.44 0.00 95 1013.3
20260510102100 52 0 0.0 0.0 0.00 0.44 0.00 95 1013.3
20260510101558 52 0 0.0 1.0 0.00 0.44 0.00 95 1013.4
20260510101102 52 0 0.0 1.0 0.00 0.44 0.00 95 1013.5
20260510100559 52 0 0.0 0.0 0.00 0.44 0.00 95 1013.4
20260510100059 52 0 0.0 1.0 0.00 0.44 0.00 95 1013.3
20260510095600 52 0 0.0 1.0 0.00 0.44 0.00 95 1013.2
20260510095059 52 0 0.0 1.0 0.00 0.44 0.00 95 1013.1
20260510094558 52 0 0.0 1.0 0.00 0.44 0.00 95 1013.0
20260510094058 52 0 0.0 1.0 0.00 0.44 0.00 95 1012.9
20260510093558 52 0 0.0 1.0 0.00 0.44 0.00 95 1012.7
20260510093109 52 0 0.0 1.0 0.00 0.44 0.00 95 1012.7
20260510092558 52 236 0.0 1.0 0.00 0.44 0.00 95 1012.7
20260510092058 52 0 0.0 1.0 0.00 0.44 0.00 95 1012.7
20260510091600 52 0 0.0 1.0 0.00 0.44 0.00 95 1012.6
20260510091059 52 0 0.0 1.0 0.00 0.44 0.00 95 1012.3
20260510090559 52 0 0.0 1.0 0.00 0.44 0.00 95 1012.5
20260510090059 52 0 0.0 2.0 0.00 0.44 0.00 95 1012.5
20260510085601 52 0 0.0 2.0 0.00 0.44 0.00 95 1012.7
20260510085058 52 0 0.0 0.0 0.00 0.44 0.00 95 1012.6
20260510084603 52 0 0.0 2.0 0.00 0.44 0.00 95 1012.7
20260510084059 52 0 0.0 2.0 0.00 0.44 0.00 95 1012.8
20260510083559 52 0 0.0 2.0 0.00 0.44 0.00 95 1012.7
20260510083100 52 0 0.0 1.0 0.00 0.44 0.00 95 1012.7
20260510082558 52 0 0.0 1.0 0.00 0.44 0.00 95 1012.7
20260510082100 52 0 0.0 2.0 0.00 0.44 0.00 95 1012.7
20260510081625 52 0 0.0 4.0 0.00 0.44 0.00 95 1012.6
20260510081100 52 0 0.0 4.0 0.00 0.44 0.00 95 1012.8
20260510080600 52 0 0.0 1.0 0.00 0.44 0.00 95 1012.6
20260510080058 52 0 0.0 1.0 0.00 0.44 0.00 95 1012.5
20260510075600 52 0 0.0 1.0 0.00 0.44 0.00 95 1012.5
20260510075100 52 209 0.0 2.0 0.00 0.44 0.00 95 1012.4
20260510074600 52 0 0.0 2.0 0.00 0.44 0.00 95 1012.5
20260510074102 52 0 0.0 2.0 0.00 0.44 0.00 95 1012.5
20260510073556 52 0 0.0 2.0 0.00 0.44 0.00 95 1012.4
20260510073105 52 212 0.0 4.0 0.00 0.44 0.00 95 1012.3
20260510072557 52 0 1.0 4.0 0.00 0.44 0.00 95 1012.3
20260510072100 52 0 0.0 1.0 0.00 0.44 0.00 95 1012.2
20260510071601 52 0 0.0 2.0 0.00 0.44 0.00 95 1012.2
20260510071059 52 0 0.0 8.0 0.00 0.44 0.00 95 1012.1
20260510070559 52 0 0.0 8.0 0.00 0.44 0.00 95 1012.2
20260510070059 52 167 1.0 3.0 0.00 0.44 0.00 94 1012.2
20260510065600 53 0 0.0 3.0 0.00 0.44 0.00 94 1012.1
20260510065100 53 0 0.0 3.0 0.00 0.44 0.00 94 1012.0
20260510064601 53 0 0.0 3.0 0.00 0.44 0.00 94 1012.0
20260510064057 53 207 0.0 3.0 0.00 0.44 0.00 94 1012.1
20260510063600 53 0 0.0 3.0 0.00 0.44 0.00 94 1012.0
20260510063058 53 196 0.0 4.0 0.00 0.44 0.00 94 1012.0
20260510062556 53 212 0.0 4.0 0.00 0.44 0.00 94 1012.0
20260510062056 53 229 0.0 4.0 0.00 0.44 0.00 94 1012.1
20260510061557 52 0 0.0 2.0 0.00 0.44 0.00 95 1012.2
20260510061100 52 0 0.0 4.0 0.00 0.44 0.00 95 1012.1
20260510060601 52 0 0.0 4.0 0.00 0.44 0.00 95 1011.9
20260510060058 52 0 0.0 0.0 0.00 0.44 0.00 95 1011.9
20260510055600 52 0 0.0 0.0 0.00 0.44 0.00 95 1011.9
20260510055100 52 0 0.0 0.0 0.00 0.44 0.00 94 1011.9
20260510054559 52 0 0.0 0.0 0.00 0.44 0.00 94 1012.0
20260510054100 52 0 0.0 0.0 0.00 0.44 0.00 94 1011.9
20260510053602 52 0 0.0 0.0 0.00 0.44 0.00 94 1011.9
20260510053120 52 0 0.0 0.0 0.00 0.44 0.00 94 1011.9
20260510052600 52 0 0.0 0.0 0.00 0.44 0.00 94 1012.0
20260510052104 52 0 0.0 0.0 0.00 0.44 0.00 94 1012.1
20260510051606 51 0 0.0 0.0 0.00 0.44 0.00 94 1012.1
20260510051101 51 0 0.0 0.0 0.00 0.44 0.00 94 1012.1
20260510050602 51 0 0.0 0.0 0.00 0.44 0.00 94 1012.1
20260510050111 51 0 0.0 0.0 0.00 0.44 0.00 94 1012.1
20260510045559 51 0 0.0 0.0 0.00 0.44 0.00 94 1012.1
20260510045139 51 0 0.0 0.0 0.00 0.44 0.00 94 1012.2
20260510044614 51 0 0.0 0.0 0.00 0.44 0.00 94 1012.1
20260510044058 51 0 0.0 0.0 0.00 0.44 0.00 94 1012.0
20260510043558 51 0 0.0 2.0 0.00 0.44 0.00 94 1012.0
20260510043101 51 0 0.0 2.0 0.00 0.44 0.00 94 1012.0
20260510042559 51 0 0.0 1.0 0.00 0.44 0.00 94 1012.1
20260510042101 51 0 0.0 3.0 0.00 0.44 0.00 94 1012.1
20260510041604 51 0 0.0 3.0 0.00 0.44 0.00 94 1012.1
20260510041058 51 117 1.0 3.0 0.00 0.44 0.00 94 1012.1
20260510040600 51 0 0.0 0.0 0.00 0.44 0.00 94 1012.1
20260510040057 51 0 0.0 0.0 0.00 0.44 0.00 94 1012.5
20260510035559 51 0 0.0 0.0 0.00 0.44 0.44 94 1012.5
20260510035059 51 0 0.0 0.0 0.01 0.44 0.44 94 1012.5
20260510034558 51 0 0.0 0.0 0.01 0.44 0.44 94 1012.4
20260510034059 51 0 0.0 0.0 0.01 0.44 0.44 94 1012.2
20260510033559 51 0 0.0 0.0 0.01 0.44 0.44 94 1012.4
20260510033112 51 0 0.0 0.0 0.01 0.44 0.44 94 1012.5
20260510032602 51 0 0.0 0.0 0.02 0.44 0.44 94 1012.7
20260510032058 51 0 0.0 0.0 0.03 0.44 0.44 94 1012.6
20260510031558 51 0 0.0 0.0 0.03 0.44 0.44 94 1012.7
20260510031059 51 0 0.0 0.0 0.03 0.44 0.44 94 1012.7
20260510030559 51 0 0.0 0.0 0.03 0.44 0.44 94 1012.8
20260510030113 51 0 0.0 0.0 0.03 0.44 0.44 94 1012.8
20260510025559 51 0 0.0 0.0 0.03 0.44 0.44 94 1012.8
20260510025057 51 0 0.0 0.0 0.02 0.43 0.43 94 1012.9
20260510024600 51 0 0.0 0.0 0.02 0.43 0.43 94 1012.9
20260510024059 51 0 0.0 0.0 0.02 0.43 0.43 94 1013.0
20260510023559 51 0 0.0 1.0 0.02 0.43 0.43 94 1013.1
20260510023104 51 0 0.0 1.0 0.02 0.43 0.43 94 1013.4
20260510022600 51 0 0.0 0.0 0.01 0.42 0.42 94 1013.4
20260510022100 51 0 0.0 0.0 0.00 0.41 0.41 93 1013.5
20260510021609 51 0 0.0 0.0 0.00 0.41 0.41 93 1013.6
20260510021059 51 0 0.0 0.0 0.00 0.41 0.41 93 1013.7
20260510020559 51 0 0.0 1.0 0.00 0.41 0.41 94 1013.7
20260510020059 51 0 0.0 1.0 0.00 0.41 0.41 93 1013.8
20260510015600 51 0 0.0 1.0 0.00 0.41 0.41 93 1013.7
20260510015100 51 0 0.0 0.0 0.00 0.41 0.41 93 1013.7
20260510014605 51 0 0.0 0.0 0.00 0.41 0.41 93 1013.7
20260510014101 51 0 0.0 0.0 0.01 0.41 0.41 93 1013.7
20260510013600 51 0 0.0 0.0 0.01 0.41 0.41 93 1013.8
20260510013059 51 0 0.0 0.0 0.01 0.41 0.41 93 1013.8
20260510012603 51 0 0.0 1.0 0.01 0.41 0.41 93 1013.9
20260510012059 52 0 0.0 1.0 0.01 0.41 0.41 93 1013.9
20260510011559 52 0 0.0 0.0 0.01 0.41 0.41 93 1014.0
20260510011059 52 0 0.0 1.0 0.01 0.41 0.41 93 1014.0
20260510010559 52 0 0.0 1.0 0.01 0.41 0.41 93 1014.1
20260510010058 52 0 0.0 1.0 0.01 0.41 0.41 93 1014.1
20260510005600 52 0 0.0 1.0 0.01 0.41 0.41 93 1014.1
20260510005101 52 0 0.0 2.0 0.01 0.41 0.41 93 1014.0
20260510004559 52 0 0.0 2.0 0.01 0.41 0.41 93 1014.1
20260510004059 52 197 0.0 2.0 0.00 0.40 0.40 93 1014.1
20260510003558 52 0 0.0 3.0 0.00 0.40 0.40 93 1014.0
20260510003104 52 0 0.0 3.0 0.00 0.40 0.40 93 1014.1
20260510002601 52 200 0.0 3.0 0.00 0.40 0.40 93 1014.1
20260510002101 53 0 0.0 2.0 0.01 0.40 0.40 93 1014.0
20260510001559 53 0 0.0 2.0 0.01 0.40 0.40 93 1014.0
20260510001058 53 0 0.0 2.0 0.01 0.40 0.40 93 1014.0
20260510000600 53 0 0.0 2.0 0.01 0.40 0.40 93 1014.0
20260509235559 53 0 0.0 2.0 0.01 0.40 0.40 93 1013.9
20260509235059 53 0 0.0 1.0 0.02 0.40 0.40 93 1014.0
20260509234601 53 0 0.0 1.0 0.02 0.40 0.40 93 1013.9
20260509234101 53 0 0.0 2.0 0.02 0.40 0.40 93 1014.0
20260509233559 53 0 0.0 2.0 0.02 0.40 0.40 93 1014.0
20260509233104 53 0 0.0 2.0 0.03 0.40 0.40 93 1014.0
20260509232558 53 0 0.0 2.0 0.03 0.40 0.40 93 1013.9
20260509232058 53 0 0.0 2.0 0.04 0.39 0.39 93 1013.9
20260509231601 53 0 0.0 3.0 0.06 0.39 0.39 93 1013.8
20260509231100 53 0 0.0 3.0 0.09 0.39 0.39 93 1013.8
20260509230604 54 167 0.0 3.0 0.11 0.39 0.39 93 1013.8
20260509230100 54 0 0.0 3.0 0.12 0.39 0.39 92 1013.8
20260509225600 54 0 0.0 3.0 0.14 0.39 0.39 92 1013.8
20260509225057 54 184 0.0 3.0 0.15 0.38 0.38 92 1013.9
20260509224600 54 0 0.0 3.0 0.16 0.38 0.38 92 1013.9
20260509224058 54 0 0.0 3.0 0.18 0.38 0.38 92 1013.8
20260509223558 54 0 0.0 3.0 0.19 0.38 0.38 92 1013.7
20260509223102 54 0 1.0 6.0 0.19 0.37 0.37 92 1013.7
20260509222557 54 0 0.0 6.0 0.20 0.37 0.37 92 1013.7
20260509222100 54 184 1.0 6.0 0.18 0.35 0.35 92 1013.7
20260509221559 54 0 0.0 4.0 0.16 0.33 0.33 92 1013.5
20260509221100 54 149 0.0 5.0 0.13 0.30 0.30 92 1013.6
20260509220600 54 163 0.0 5.0 0.11 0.28 0.28 92 1013.4
20260509215600 54 0 0.0 5.0 0.08 0.25 0.25 91 1013.4
20260509215058 54 189 0.0 3.0 0.07 0.23 0.23 91 1013.3
20260509214558 54 0 0.0 3.0 0.07 0.22 0.22 91 1013.2
20260509214057 54 0 0.0 3.0 0.06 0.20 0.20 91 1013.3
20260509213558 54 0 0.0 7.0 0.07 0.19 0.19 90 1013.3
20260509213102 54 0 0.0 7.0 0.10 0.18 0.18 91 1013.4
20260509212557 54 184 1.0 3.0 0.11 0.17 0.17 90 1013.4
20260509212100 54 0 0.0 5.0 0.13 0.17 0.17 90 1013.3
20260509211606 54 0 0.0 5.0 0.13 0.17 0.17 90 1013.2
20260509211058 54 0 1.0 5.0 0.13 0.17 0.17 90 1013.2
20260509210558 55 182 0.0 2.0 0.13 0.17 0.17 90 1013.1
20260509210056 55 193 0.0 2.0 0.13 0.17 0.17 89 1013.0
20260509205557 55 0 0.0 6.0 0.13 0.17 0.17 89 1013.0
20260509205057 55 188 1.0 6.0 0.12 0.16 0.16 88 1013.0
20260509204558 55 0 1.0 7.0 0.11 0.15 0.15 88 1012.9
20260509204058 55 174 2.0 7.0 0.10 0.14 0.14 86 1012.8
20260509203557 55 207 2.0 8.0 0.08 0.12 0.12 85 1012.8
20260509203116 56 204 2.0 10.0 0.04 0.08 0.08 83 1012.9
20260509202557 56 173 2.0 10.0 0.02 0.06 0.06 80 1012.9
20260509202100 58 219 2.0 8.0 0.00 0.04 0.04 77 1012.9
20260509201604 58 190 2.0 7.0 0.00 0.04 0.04 78 1012.9
20260509201058 59 157 1.0 5.0 0.00 0.04 0.04 77 1012.8
20260509200600 59 191 2.0 5.0 0.00 0.04 0.04 74 1012.8
20260509200110 60 199 1.0 9.0 0.00 0.04 0.04 73 1012.8
20260509195558 60 185 3.0 9.0 0.00 0.04 0.04 72 1012.7
20260509195059 60 0 2.0 9.0 0.00 0.04 0.04 71 1012.7
20260509194559 60 194 3.0 9.0 0.00 0.04 0.04 70 1012.8
20260509194100 60 0 2.0 9.0 0.00 0.04 0.04 69 1012.6
20260509193558 60 168 2.0 9.0 0.00 0.04 0.04 69 1012.7
20260509193115 60 175 1.0 5.0 0.00 0.04 0.04 69 1012.7
20260509192556 60 98 1.0 7.0 0.00 0.04 0.04 69 1012.7
20260509192059 60 277 0.0 7.0 0.00 0.04 0.04 70 1012.7
20260509191604 60 60 1.0 8.0 0.00 0.04 0.04 69 1012.8
20260509191100 61 253 2.0 8.0 0.00 0.04 0.04 69 1012.8
20260509190601 61 277 2.0 10.0 0.00 0.04 0.04 69 1012.7
20260509190106 60 209 2.0 10.0 0.00 0.04 0.04 69 1012.7
20260509185558 60 0 2.0 9.0 0.00 0.04 0.04 70 1012.7
20260509185059 61 171 2.0 9.0 0.00 0.04 0.04 70 1012.9
20260509184608 61 254 1.0 7.0 0.00 0.04 0.04 70 1012.8
20260509184058 60 0 0.0 7.0 0.00 0.04 0.04 72 1012.9
20260509183558 60 163 2.0 7.0 0.00 0.04 0.04 70 1012.8
20260509183102 60 76 2.0 7.0 0.00 0.04 0.04 70 1012.9
20260509182558 60 97 1.0 7.0 0.00 0.04 0.04 70 1012.8
20260509182100 60 188 2.0 7.0 0.00 0.04 0.04 69 1012.8
20260509181610 60 215 1.0 5.0 0.00 0.04 0.04 72 1012.9
20260509181100 59 200 1.0 6.0 0.00 0.04 0.04 73 1012.9
20260509180558 59 281 0.0 6.0 0.00 0.04 0.04 75 1013.0
20260509180108 58 86 1.0 6.0 0.00 0.04 0.04 77 1013.0
20260509175559 57 183 1.0 3.0 0.00 0.04 0.04 77 1013.2
20260509175059 57 0 0.0 3.0 0.00 0.04 0.04 77 1013.0
20260509174603 57 0 0.0 5.0 0.00 0.04 0.04 78 1012.9
20260509174058 57 0 2.0 5.0 0.00 0.04 0.04 77 1013.1
20260509173600 57 140 1.0 3.0 0.00 0.04 0.04 77 1013.8
20260509173108 57 159 0.0 7.0 0.00 0.04 0.04 77 1013.9
20260509172558 57 194 0.0 7.0 0.00 0.04 0.04 75 1013.9
20260509172057 57 0 0.0 4.0 0.00 0.04 0.04 74 1014.0
20260509171627 57 157 1.0 7.0 0.00 0.04 0.04 72 1013.8
20260509171059 58 215 1.0 7.0 0.00 0.04 0.04 71 1013.9
20260509170600 58 238 1.0 5.0 0.00 0.04 0.04 70 1013.9
20260509170057 59 196 1.0 9.0 0.00 0.04 0.04 70 1013.8
20260509165559 59 0 1.0 9.0 0.00 0.04 0.04 69 1013.6
20260509165057 59 185 2.0 9.0 0.00 0.04 0.04 69 1013.6
20260509164557 59 184 1.0 7.0 0.00 0.04 0.04 68 1013.5
20260509164059 60 181 1.0 6.0 0.00 0.04 0.04 68 1013.5
20260509163600 60 199 1.0 7.0 0.00 0.04 0.04 68 1013.6
20260509163124 60 113 1.0 7.0 0.00 0.04 0.04 69 1013.7
20260509162559 60 0 1.0 5.0 0.00 0.04 0.04 68 1013.6
20260509162101 60 161 1.0 5.0 0.00 0.04 0.04 67 1013.5
20260509161600 60 180 1.0 7.0 0.00 0.04 0.04 68 1013.6
20260509161103 60 202 0.0 7.0 0.00 0.04 0.04 66 1013.7
20260509160602 61 149 3.0 7.0 0.00 0.04 0.04 68 1013.8
20260509155604 60 118 3.0 8.0 0.00 0.04 0.04 69 1013.9
20260509155059 60 109 1.0 5.0 0.00 0.04 0.04 70 1014.0
20260509154559 61 59 1.0 5.0 0.00 0.04 0.04 70 1014.1
20260509154100 61 0 1.0 6.0 0.00 0.04 0.04 69 1014.1
20260509153603 61 0 1.0 7.0 0.00 0.04 0.04 69 1014.1
20260509153101 61 88 2.0 9.0 0.00 0.04 0.04 72 1014.1
20260509152559 60 132 4.0 9.0 0.00 0.04 0.04 72 1014.1
20260509152100 59 90 2.0 8.0 0.00 0.04 0.04 73 1014.2
20260509151605 59 109 1.0 6.0 0.00 0.04 0.04 74 1014.2
20260509151100 59 205 1.0 7.0 0.00 0.04 0.04 75 1014.2
20260509150601 58 90 2.0 8.0 0.00 0.04 0.04 76 1014.4
20260509150126 58 125 3.0 8.0 0.00 0.04 0.04 77 1014.5
20260509145600 57 115 3.0 9.0 0.00 0.04 0.04 77 1014.4
20260509145102 56 110 4.0 9.0 0.00 0.04 0.04 77 1014.3
20260509144708 56 118 3.0 8.0 0.00 0.04 0.04 79 1014.2
20260509144102 56 96 3.0 8.0 0.00 0.04 0.04 80 1014.2
20260509143600 56 119 2.0 6.0 0.00 0.04 0.04 82 1014.2
20260509143059 56 0 2.0 7.0 0.00 0.04 0.04 83 1014.4
20260509142604 55 85 3.0 7.0 0.00 0.04 0.04 83 1014.4
20260509142101 55 111 2.0 8.0 0.00 0.04 0.04 84 1014.6
20260509141601 54 61 1.0 8.0 0.00 0.04 0.04 85 1014.7
20260509141100 54 107 2.0 6.0 0.00 0.04 0.04 86 1014.8
20260509140600 53 103 1.0 4.0 0.00 0.04 0.04 86 1015.0
20260509135602 52 102 2.0 5.0 0.00 0.04 0.04 88 1014.8
20260509135101 52 89 2.0 5.0 0.00 0.04 0.04 87 1014.9
20260509134600 51 101 2.0 4.0 0.00 0.04 0.04 88 1015.0
20260509134100 51 0 1.0 3.0 0.00 0.04 0.04 89 1015.2
20260509133603 51 96 1.0 4.0 0.00 0.04 0.04 89 1015.4
20260509133100 51 89 1.0 4.0 0.00 0.04 0.04 89 1015.3
20260509132601 50 84 2.0 4.0 0.00 0.04 0.04 90 1015.4
20260509132059 50 106 0.0 3.0 0.00 0.04 0.04 90 1015.4
20260509131559 50 0 0.0 4.0 0.00 0.04 0.04 91 1015.3
20260509131057 49 62 1.0 4.0 0.00 0.04 0.04 92 1015.3
20260509130559 48 63 1.0 3.0 0.01 0.04 0.04 92 1015.3
20260509130107 48 77 1.0 3.0 0.01 0.04 0.04 92 1015.4
20260509125600 48 75 1.0 3.0 0.01 0.04 0.04 92 1015.4
20260509125059 47 76 1.0 3.0 0.01 0.04 0.04 92 1015.4
20260509124612 47 67 1.0 3.0 0.01 0.04 0.04 92 1015.5
20260509124059 47 0 0.0 0.0 0.01 0.04 0.04 92 1015.6
20260509123559 47 0 0.0 0.0 0.01 0.04 0.04 92 1015.5
20260509123102 46 0 0.0 0.0 0.01 0.04 0.04 92 1015.4
20260509122600 46 0 0.0 2.0 0.02 0.04 0.04 92 1015.3
20260509122100 46 0 0.0 2.0 0.02 0.04 0.04 92 1015.2
20260509121559 46 0 0.0 3.0 0.03 0.04 0.04 92 1015.1
20260509121058 45 0 0.0 3.0 0.03 0.04 0.04 92 1015.2
20260509120558 45 75 1.0 3.0 0.02 0.03 0.03 92 1015.3